Time,TemperatureF,DewpointF,PressureIn,WindDirection,WindDirectionDegrees,WindSpeedMPH,WindSpeedGustMPH,Humidity,HourlyPrecipIn,Conditions,Clouds,dailyrainin,SoftwareType,DateUTC
2013-03-06 00:07:00,56.1,33.0,30.04,ESE,117,0.0,1.0,42,0.00,,,0.00,weatherlink.com 1.10,2013-03-06 07:07:00,
2013-03-06 00:22:00,55.9,33.0,30.04,ESE,113,0.0,2.0,42,0.00,,,0.00,weatherlink.com 1.10,2013-03-06 07:22:00,
2013-03-06 01:38:00,56.6,34.0,30.02,ESE,121,3.0,4.0,42,0.00,,,0.00,weatherlink.com 1.10,2013-03-06 08:38:00,
2013-03-06 01:53:00,56.6,33.0,30.02,SE,132,2.0,3.0,41,0.00,,,0.00,weatherlink.com 1.10,2013-03-06 08:53:00,
2013-03-06 02:08:00,56.3,33.0,30.03,South,189,0.0,1.0,42,0.00,,,0.00,weatherlink.com 1.10,2013-03-06 09:08:00,
2013-03-06 02:22:00,56.2,33.0,30.02,ESE,110,2.0,4.0,42,0.00,,,0.00,weatherlink.com 1.10,2013-03-06 09:22:00,
2013-03-06 02:38:00,55.8,33.0,30.02,SE,135,1.0,3.0,42,0.00,,,0.00,weatherlink.com 1.10,2013-03-06 09:38:00,
2013-03-06 02:53:00,55.5,33.0,30.02,South,169,1.0,2.0,42,0.00,,,0.00,weatherlink.com 1.10,2013-03-06 09:53:00,
2013-03-06 03:08:00,55.4,32.0,30.02,SSW,203,4.0,4.0,42,0.00,,,0.00,weatherlink.com 1.10,2013-03-06 10:08:00,
2013-03-06 03:23:00,54.5,33.0,30.01,SSE,157,3.0,5.0,44,0.00,,,0.00,weatherlink.com 1.10,2013-03-06 10:23:00,
2013-03-06 03:38:00,54.5,33.0,30.01,East,95,1.0,4.0,44,0.00,,,0.00,weatherlink.com 1.10,2013-03-06 10:38:00,
2013-03-06 03:52:00,54.4,33.0,30.02,SSE,157,0.0,2.0,44,0.00,,,0.00,weatherlink.com 1.10,2013-03-06 10:52:00,
2013-03-06 04:08:00,54.5,32.0,30.02,ESE,111,2.0,3.0,43,0.00,,,0.00,weatherlink.com 1.10,2013-03-06 11:08:00,
2013-03-06 04:22:00,54.9,33.0,30.02,SE,136,0.0,1.0,43,0.00,,,0.00,weatherlink.com 1.10,2013-03-06 11:22:00,
2013-03-06 04:37:00,54.3,33.0,30.02,ESE,110,1.0,3.0,45,0.00,,,0.00,weatherlink.com 1.10,2013-03-06 11:37:00,
2013-03-06 04:53:00,54.9,33.0,30.02,ESE,110,2.0,5.0,44,0.00,,,0.00,weatherlink.com 1.10,2013-03-06 11:53:00,
2013-03-06 05:07:00,55.7,33.0,30.02,East,96,0.0,4.0,42,0.00,,,0.00,weatherlink.com 1.10,2013-03-06 12:07:00,
2013-03-06 05:23:00,55.7,33.0,30.01,ESE,107,3.0,4.0,42,0.00,,,0.00,weatherlink.com 1.10,2013-03-06 12:23:00,
2013-03-06 05:38:00,55.5,32.0,30.02,ENE,75,3.0,5.0,41,0.00,,,0.00,weatherlink.com 1.10,2013-03-06 12:38:00,
2013-03-06 05:53:00,54.5,32.0,30.02,ESE,122,8.0,8.0,42,0.00,,,0.00,weatherlink.com 1.10,2013-03-06 12:53:00,
2013-03-06 06:07:00,54.2,31.0,30.02,East,96,3.0,7.0,41,0.00,,,0.00,weatherlink.com 1.10,2013-03-06 13:07:00,
2013-03-06 06:23:00,54.4,30.0,30.03,SE,143,2.0,7.0,40,0.00,,,0.00,weatherlink.com 1.10,2013-03-06 13:23:00,
2013-03-06 06:38:00,54.3,30.0,30.02,SE,124,4.0,5.0,40,0.00,,,0.00,weatherlink.com 1.10,2013-03-06 13:38:00,
2013-03-06 06:53:00,53.4,30.0,30.03,SE,131,6.0,6.0,41,0.00,,,0.00,weatherlink.com 1.10,2013-03-06 13:53:00,
2013-03-06 07:07:00,53.9,30.0,30.03,East,97,3.0,5.0,40,0.00,,,0.00,weatherlink.com 1.10,2013-03-06 14:07:00,
2013-03-06 07:23:00,56.6,30.0,30.03,ESE,102,3.0,4.0,37,0.00,,,0.00,weatherlink.com 1.10,2013-03-06 14:23:00,
2013-03-06 07:38:00,59.4,30.0,30.03,ESE,121,2.0,6.0,33,0.00,,,0.00,weatherlink.com 1.10,2013-03-06 14:38:00,
2013-03-06 07:54:00,61.6,30.0,30.03,SSE,149,6.0,9.0,30,0.00,,,0.00,weatherlink.com 1.10,2013-03-06 14:54:00,
2013-03-06 08:09:00,62.3,27.0,30.04,ESE,113,7.0,9.0,26,0.00,,,0.00,weatherlink.com 1.10,2013-03-06 15:09:00,
2013-03-06 08:24:00,62.5,28.0,30.05,ESE,113,2.0,7.0,27,0.00,,,0.00,weatherlink.com 1.10,2013-03-06 15:24:00,
2013-03-06 08:38:00,63.1,28.0,30.05,SSW,205,1.0,4.0,27,0.00,,,0.00,weatherlink.com 1.10,2013-03-06 15:38:00,
2013-03-06 09:09:00,64.1,30.0,30.05,South,176,2.0,3.0,28,0.00,,,0.00,weatherlink.com 1.10,2013-03-06 16:09:00,
2013-03-06 09:24:00,64.5,30.0,30.06,South,190,2.0,4.0,27,0.00,,,0.00,weatherlink.com 1.10,2013-03-06 16:24:00,
2013-03-06 09:39:00,67.1,31.0,30.05,South,170,1.0,4.0,26,0.00,,,0.00,weatherlink.com 1.10,2013-03-06 16:39:00,
2013-03-06 09:54:00,70.5,30.0,30.05,SE,134,5.0,5.0,22,0.00,,,0.00,weatherlink.com 1.10,2013-03-06 16:54:00,
2013-03-06 10:09:00,70.9,27.0,30.04,SE,134,3.0,7.0,19,0.00,,,0.00,weatherlink.com 1.10,2013-03-06 17:09:00,
2013-03-06 10:24:00,72.8,25.0,30.04,ESE,113,0.0,4.0,17,0.00,,,0.00,weatherlink.com 1.10,2013-03-06 17:24:00,
2013-03-06 18:06:00,77.0,29.0,29.91,West,280,3.0,6.0,17,0.00,,,0.00,weatherlink.com 1.10,2013-03-07 01:06:00,
2013-03-06 18:25:00,74.7,28.0,29.91,WNW,295,3.0,5.0,18,0.00,,,0.00,weatherlink.com 1.10,2013-03-07 01:25:00,
2013-03-06 18:40:00,72.7,28.0,29.91,SW,233,1.0,3.0,19,0.00,,,0.00,weatherlink.com 1.10,2013-03-07 01:40:00,
2013-03-06 18:55:00,71.4,28.0,29.92,SW,236,0.0,5.0,20,0.00,,,0.00,weatherlink.com 1.10,2013-03-07 01:55:00,
2013-03-06 19:10:00,69.6,29.0,29.92,SW,233,0.0,1.0,22,0.00,,,0.00,weatherlink.com 1.10,2013-03-07 02:10:00,
2013-03-06 19:25:00,68.8,28.0,29.93,SW,218,0.0,2.0,22,0.00,,,0.00,weatherlink.com 1.10,2013-03-07 02:25:00,
2013-03-06 19:40:00,68.4,28.0,29.93,WSW,248,1.0,2.0,22,0.00,,,0.00,weatherlink.com 1.10,2013-03-07 02:40:00,
2013-03-06 19:55:00,67.1,29.0,29.93,SW,231,0.0,0.0,24,0.00,,,0.00,weatherlink.com 1.10,2013-03-07 02:55:00,
2013-03-06 20:10:00,65.5,30.0,29.94,SSW,197,0.0,1.0,26,0.00,,,0.00,weatherlink.com 1.10,2013-03-07 03:10:00,
2013-03-06 20:25:00,64.3,29.0,29.93,SSE,158,0.0,1.0,27,0.00,,,0.00,weatherlink.com 1.10,2013-03-07 03:25:00,
2013-03-06 20:40:00,63.3,30.0,29.94,SE,142,2.0,3.0,29,0.00,,,0.00,weatherlink.com 1.10,2013-03-07 03:40:00,
2013-03-06 20:55:00,62.5,31.0,29.94,SSE,148,1.0,2.0,30,0.00,,,0.00,weatherlink.com 1.10,2013-03-07 03:55:00,
2013-03-06 21:10:00,62.3,31.0,29.94,SE,141,1.0,2.0,31,0.00,,,0.00,weatherlink.com 1.10,2013-03-07 04:10:00,
2013-03-06 21:25:00,61.1,31.0,29.95,SE,141,0.0,1.0,32,0.00,,,0.00,weatherlink.com 1.10,2013-03-07 04:25:00,
2013-03-06 21:40:00,60.0,31.0,29.95,SE,133,0.0,2.0,34,0.00,,,0.00,weatherlink.com 1.10,2013-03-07 04:40:00,
2013-03-06 21:55:00,59.2,31.0,29.95,SE,135,2.0,2.0,35,0.00,,,0.00,weatherlink.com 1.10,2013-03-07 04:55:00,
2013-03-06 22:10:00,58.4,31.0,29.95,ESE,121,0.0,2.0,35,0.00,,,0.00,weatherlink.com 1.10,2013-03-07 05:10:00,
2013-03-06 22:25:00,58.3,31.0,29.95,ESE,120,1.0,3.0,36,0.00,,,0.00,weatherlink.com 1.10,2013-03-07 05:25:00,
2013-03-06 22:40:00,58.3,31.0,29.95,SE,131,0.0,2.0,35,0.00,,,0.00,weatherlink.com 1.10,2013-03-07 05:40:00,
2013-03-06 22:55:00,57.6,31.0,29.96,East,86,2.0,3.0,36,0.00,,,0.00,weatherlink.com 1.10,2013-03-07 05:55:00,
2013-03-06 23:10:00,56.3,31.0,29.96,SE,128,1.0,6.0,38,0.00,,,0.00,weatherlink.com 1.10,2013-03-07 06:10:00,
2013-03-06 23:25:00,55.5,31.0,29.96,SE,141,1.0,5.0,39,0.00,,,0.00,weatherlink.com 1.10,2013-03-07 06:25:00,
2013-03-06 23:40:00,55.5,30.0,29.96,ESE,110,1.0,4.0,38,0.00,,,0.00,weatherlink.com 1.10,2013-03-07 06:40:00,
2013-03-06 23:55:00,55.2,30.0,29.96,SE,140,2.0,5.0,39,0.00,,,0.00,weatherlink.com 1.10,2013-03-07 06:55:00,